When you browse on this site, cookies collect data to enhance your experience and personalize the content and advertising you see.
Visit our Privacy Policy to learn more. By continuing to use the site, you agree to this use of cookies and data.
  • în România
  • Lista ţărilor
  • Pe 7 zile
  • Temperatura apei
  • Meteo pe hartă
  • Widget-uri
  • user-avatar
    Intrare

    Meteo pe oră la Shannon

    Astăzi, 27 Februarie, Joi

    Timp Temperatura Precipitaţii Vânt Presiune Umiditate
    00:00 +4°C° 0 mm 1 m/s 749 mmHg 97%
    01:00 +3°C° 0 mm 2 m/s 750 mmHg 96%
    02:00 +3°C° 0 mm 2 m/s 750 mmHg 95%
    03:00 +2°C° 0 mm 2 m/s 751 mmHg 95%
    04:00 +2°C° 0 mm 2 m/s 751 mmHg 94%
    05:00 +1°C° 0 mm 2 m/s 752 mmHg 94%
    06:00 +2°C° 0 mm 2 m/s 753 mmHg 91%
    07:00 +2°C° 0 mm 2 m/s 753 mmHg 88%
    08:00 +3°C° 0 mm 2 m/s 754 mmHg 84%
    09:00 +3°C° 0 mm 3 m/s 754 mmHg 77%
    10:00 +4°C° 0 mm 4 m/s 755 mmHg 70%
    11:00 +6°C° 0 mm 5 m/s 756 mmHg 63%
    12:00 +6°C° 0 mm 4 m/s 756 mmHg 63%
    13:00 +6°C° 0 mm 4 m/s 756 mmHg 62%
    14:00 +6°C° 0 mm 4 m/s 756 mmHg 62%
    15:00 +5°C° 0 mm 3 m/s 757 mmHg 67%
    16:00 +5°C° 0 mm 2 m/s 757 mmHg 73%
    17:00 +4°C° 0 mm 2 m/s 757 mmHg 79%
    18:00 +3°C° 0 mm 2 m/s 757 mmHg 80%
    19:00 +3°C° 0 mm 2 m/s 757 mmHg 81%
    20:00 +3°C° 0 mm 2 m/s 756 mmHg 82%
    21:00 +2°C° 0 mm 3 m/s 756 mmHg 83%
    22:00 +3°C° 0 mm 3 m/s 755 mmHg 84%
    23:00 +3°C° 0 mm 4 m/s 754 mmHg 85%

    Mâine, 28 Februarie, Vineri

    Timp Temperatura Precipitaţii Vânt Presiune Umiditate
    00:00 +3°C° 0.6 mm 4 m/s 753 mmHg 88%
    01:00 +3°C° 0.6 mm 5 m/s 751 mmHg 92%
    02:00 +3°C° 0.6 mm 6 m/s 749 mmHg 95%
    03:00 +4°C° 1.6 mm 6 m/s 748 mmHg 95%
    04:00 +5°C° 1.6 mm 6 m/s 746 mmHg 95%
    05:00 +5°C° 1.6 mm 6 m/s 745 mmHg 96%
    06:00 +7°C° 0.2 mm 6 m/s 744 mmHg 95%
    07:00 +8°C° 0.2 mm 6 m/s 743 mmHg 95%
    08:00 +9°C° 0.2 mm 6 m/s 743 mmHg 94%
    09:00 +9°C° 0.1 mm 5 m/s 743 mmHg 92%
    10:00 +10°C° 0.1 mm 5 m/s 742 mmHg 90%
    11:00 +11°C° 0.1 mm 4 m/s 742 mmHg 88%
    12:00 +11°C° 0.2 mm 4 m/s 741 mmHg 89%
    13:00 +11°C° 0.2 mm 3 m/s 740 mmHg 90%
    14:00 +11°C° 0.2 mm 3 m/s 739 mmHg 91%
    15:00 +10°C° 0 mm 3 m/s 738 mmHg 93%
    16:00 +10°C° 0 mm 3 m/s 737 mmHg 95%
    17:00 +9°C° 0 mm 2 m/s 736 mmHg 97%
    18:00 +9°C° 0.4 mm 3 m/s 735 mmHg 96%
    19:00 +10°C° 0.4 mm 4 m/s 733 mmHg 96%
    20:00 +9°C° 0.4 mm 5 m/s 731 mmHg 95%
    21:00 +9°C° 0.9 mm 5 m/s 730 mmHg 94%
    22:00 +8°C° 0.9 mm 6 m/s 730 mmHg 94%
    23:00 +8°C° 0.9 mm 7 m/s 729 mmHg 93%

    Poimâine, 29 Februarie, Sâmbătă

    Timp Temperatura Precipitaţii Vânt Presiune Umiditate
    00:00 +5°C° 0.2 mm 7 m/s 729 mmHg 89%
    01:00 +2°C° 0.2 mm 8 m/s 730 mmHg 86%
    02:00 0°C° 0.2 mm 8 m/s 730 mmHg 82%
    03:00 -1°C° 0.1 mm 8 m/s 730 mmHg 85%
    04:00 -1°C° 0.1 mm 8 m/s 729 mmHg 88%
    05:00 -3°C° 0.1 mm 9 m/s 729 mmHg 92%
    06:00 -2°C° 0.6 mm 10 m/s 728 mmHg 87%
    07:00 -2°C° 0.6 mm 11 m/s 727 mmHg 83%
    08:00 -1°C° 0.6 mm 12 m/s 726 mmHg 79%
    09:00 -1°C° 0.7 mm 13 m/s 725 mmHg 83%
    10:00 -1°C° 0.7 mm 14 m/s 725 mmHg 88%
    11:00 -2°C° 0.7 mm 16 m/s 724 mmHg 92%
    12:00 0°C° 1.3 mm 16 m/s 724 mmHg 92%
    13:00 0°C° 1.3 mm 17 m/s 723 mmHg 92%
    14:00 +1°C° 1.3 mm 17 m/s 723 mmHg 91%
    15:00 +1°C° 1 mm 17 m/s 724 mmHg 91%
    16:00 +1°C° 1 mm 16 m/s 725 mmHg 90%
    17:00 +1°C° 1 mm 16 m/s 727 mmHg 90%
    18:00 +1°C° 0.9 mm 15 m/s 727 mmHg 90%
    19:00 +1°C° 0.9 mm 14 m/s 728 mmHg 91%
    20:00 +1°C° 0.9 mm 13 m/s 729 mmHg 91%
    21:00 +2°C° 0.6 mm 12 m/s 730 mmHg 90%
    22:00 +2°C° 0.6 mm 11 m/s 731 mmHg 88%
    23:00 +2°C° 0.6 mm 10 m/s 732 mmHg 87%

    1 Martie, Duminică

    Timp Temperatura Precipitaţii Vânt Presiune Umiditate
    00:00 +2°C° 0.1 mm 10 m/s 733 mmHg 85%
    01:00 +2°C° 0.1 mm 10 m/s 734 mmHg 82%
    02:00 +1°C° 0.1 mm 9 m/s 735 mmHg 80%
    03:00 +1°C° 0 mm 9 m/s 736 mmHg 80%
    04:00 +1°C° 0 mm 8 m/s 736 mmHg 79%
    05:00 0°C° 0 mm 7 m/s 737 mmHg 78%
    06:00 0°C° 0.1 mm 7 m/s 737 mmHg 78%
    07:00 +1°C° 0.1 mm 8 m/s 738 mmHg 78%
    08:00 +1°C° 0.1 mm 8 m/s 738 mmHg 78%
    09:00 +2°C° 0.2 mm 8 m/s 739 mmHg 75%
    10:00 +2°C° 0.2 mm 8 m/s 739 mmHg 72%
    11:00 +3°C° 0.2 mm 9 m/s 740 mmHg 69%
    12:00 +4°C° 0.2 mm 8 m/s 740 mmHg 69%
    13:00 +4°C° 0.2 mm 8 m/s 740 mmHg 70%
    14:00 +4°C° 0.2 mm 8 m/s 740 mmHg 70%
    15:00 +3°C° 0.1 mm 6 m/s 741 mmHg 74%
    16:00 +2°C° 0.1 mm 5 m/s 741 mmHg 77%
    17:00 +1°C° 0.1 mm 4 m/s 741 mmHg 81%
    18:00 0°C° 0.1 mm 4 m/s 742 mmHg 83%
    19:00 +1°C° 0.1 mm 3 m/s 742 mmHg 85%
    20:00 0°C° 0.1 mm 3 m/s 742 mmHg 88%
    21:00 0°C° 0.1 mm 3 m/s 743 mmHg 88%
    22:00 0°C° 0.1 mm 3 m/s 743 mmHg 88%
    23:00 +1°C° 0.1 mm 3 m/s 743 mmHg 89%

    2 Martie, Luni

    Timp Temperatura Precipitaţii Vânt Presiune Umiditate
    00:00 0°C° 0.1 mm 3 m/s 743 mmHg 89%
    01:00 0°C° 0.1 mm 3 m/s 744 mmHg 90%
    02:00 0°C° 0.1 mm 3 m/s 744 mmHg 90%
    03:00 0°C° 0.1 mm 3 m/s 744 mmHg 89%
    04:00 0°C° 0.1 mm 3 m/s 745 mmHg 89%
    05:00 0°C° 0.1 mm 3 m/s 745 mmHg 88%
    06:00 +1°C° 0.1 mm 3 m/s 746 mmHg 86%
    07:00 +1°C° 0.1 mm 4 m/s 747 mmHg 84%
    08:00 +1°C° 0.1 mm 4 m/s 748 mmHg 83%
    09:00 +3°C° 0.2 mm 4 m/s 748 mmHg 79%
    10:00 +3°C° 0.2 mm 5 m/s 749 mmHg 75%
    11:00 +4°C° 0.2 mm 6 m/s 749 mmHg 71%
    12:00 +4°C° 0.1 mm 6 m/s 750 mmHg 70%
    13:00 +4°C° 0.1 mm 6 m/s 750 mmHg 69%
    14:00 +4°C° 0.1 mm 6 m/s 750 mmHg 68%
    15:00 +3°C° 0.1 mm 5 m/s 751 mmHg 71%
    16:00 +3°C° 0.1 mm 4 m/s 751 mmHg 75%
    17:00 +2°C° 0.1 mm 3 m/s 752 mmHg 78%
    18:00 +1°C° 0.1 mm 3 m/s 752 mmHg 81%
    19:00 +1°C° 0.1 mm 3 m/s 753 mmHg 83%
    20:00 0°C° 0.1 mm 3 m/s 753 mmHg 86%
    21:00 +1°C° 0 mm 2 m/s 754 mmHg 87%
    22:00 +1°C° 0 mm 2 m/s 754 mmHg 88%
    23:00 +1°C° 0 mm 2 m/s 754 mmHg 88%

    3 Martie, Marţi

    Timp Temperatura Precipitaţii Vânt Presiune Umiditate
    00:00 +1°C° 0 mm 2 m/s 754 mmHg 88%
    01:00 +1°C° 0 mm 2 m/s 754 mmHg 88%
    02:00 +2°C° 0 mm 1 m/s 753 mmHg 88%
    03:00 +2°C° 0 mm 1 m/s 753 mmHg 87%
    04:00 +2°C° 0 mm 1 m/s 753 mmHg 87%
    05:00 +1°C° 0 mm 2 m/s 752 mmHg 86%
    06:00 +2°C° 0 mm 2 m/s 752 mmHg 85%
    07:00 +2°C° 0 mm 2 m/s 751 mmHg 83%
    08:00 +3°C° 0 mm 2 m/s 751 mmHg 81%
    09:00 +2°C° 0.1 mm 3 m/s 750 mmHg 80%
    10:00 +3°C° 0.1 mm 4 m/s 750 mmHg 79%
    11:00 +4°C° 0.1 mm 4 m/s 749 mmHg 78%
    12:00 +4°C° 0.2 mm 4 m/s 749 mmHg 79%
    13:00 +3°C° 0.2 mm 5 m/s 748 mmHg 80%
    14:00 +3°C° 0.2 mm 5 m/s 748 mmHg 81%
    15:00 +4°C° 0.1 mm 4 m/s 748 mmHg 84%
    16:00 +3°C° 0.1 mm 3 m/s 748 mmHg 86%
    17:00 +3°C° 0.1 mm 3 m/s 749 mmHg 89%
    18:00 +3°C° 0 mm 2 m/s 750 mmHg 90%
    19:00 +3°C° 0 mm 1 m/s 751 mmHg 90%
    20:00 +2°C° 0 mm 1 m/s 752 mmHg 91%
    21:00 +2°C° 0 mm 1 m/s 752 mmHg 91%
    22:00 +1°C° 0 mm 1 m/s 752 mmHg 91%
    23:00 +1°C° 0 mm 1 m/s 753 mmHg 91%
    Arată mai mult